When you browse on this site, cookies collect data to enhance your experience and personalize the content and advertising you see.
Visit our Privacy Policy to learn more. By continuing to use the site, you agree to this use of cookies and data.
  • In Portugal
  • List of Countries
  • For 7 days
  • Water Temperature
  • Satellite Maps
  • Weather Map
  • Weather Widgets
  • user-avatar
    Login

    Hourly Weather Zhmerynka

    Today, 21 April, Sunday

    Time Temperature Precipitation Wind Pressure Humidity
    00:00 +7°C° 1.4 mm 2 mps 739 mmHg 72%
    01:00 +7°C° 1.4 mm 2 mps 739 mmHg 78%
    02:00 +6°C° 1.4 mm 2 mps 738 mmHg 84%
    03:00 +5°C° 1.3 mm 3 mps 738 mmHg 84%
    04:00 +5°C° 1.3 mm 3 mps 738 mmHg 85%
    05:00 +5°C° 1.3 mm 4 mps 737 mmHg 85%
    06:00 +5°C° 0.7 mm 4 mps 737 mmHg 83%
    07:00 +5°C° 0.7 mm 4 mps 737 mmHg 82%
    08:00 +6°C° 0.7 mm 4 mps 737 mmHg 80%
    09:00 +7°C° 0.2 mm 5 mps 737 mmHg 75%
    10:00 +8°C° 0.2 mm 5 mps 737 mmHg 70%
    11:00 +9°C° 0.2 mm 6 mps 737 mmHg 65%
    12:00 +10°C° 0 mm 6 mps 737 mmHg 61%
    13:00 +11°C° 0 mm 6 mps 737 mmHg 58%
    14:00 +11°C° 0 mm 6 mps 737 mmHg 54%
    15:00 +11°C° 0 mm 6 mps 737 mmHg 55%
    16:00 +11°C° 0 mm 6 mps 736 mmHg 55%
    17:00 +11°C° 0 mm 6 mps 736 mmHg 55%
    18:00 +10°C° 0 mm 6 mps 736 mmHg 58%
    19:00 +9°C° 0 mm 5 mps 736 mmHg 60%
    20:00 +8°C° 0 mm 5 mps 736 mmHg 63%
    21:00 +8°C° 0.1 mm 5 mps 737 mmHg 62%
    22:00 +8°C° 0.1 mm 5 mps 737 mmHg 62%
    23:00 +8°C° 0.1 mm 5 mps 737 mmHg 62%

    Tomorrow, 22 April, Monday

    Time Temperature Precipitation Wind Pressure Humidity
    00:00 +7°C° 0 mm 5 mps 737 mmHg 63%
    01:00 +6°C° 0 mm 5 mps 737 mmHg 65%
    02:00 +6°C° 0 mm 5 mps 737 mmHg 66%
    03:00 +5°C° 0 mm 4 mps 738 mmHg 68%
    04:00 +4°C° 0 mm 3 mps 738 mmHg 70%
    05:00 +4°C° 0 mm 3 mps 738 mmHg 71%
    06:00 +5°C° 0.1 mm 3 mps 738 mmHg 67%
    07:00 +6°C° 0.1 mm 4 mps 739 mmHg 63%
    08:00 +7°C° 0.1 mm 5 mps 739 mmHg 59%
    09:00 +8°C° 0 mm 5 mps 740 mmHg 54%
    10:00 +9°C° 0 mm 6 mps 740 mmHg 50%
    11:00 +11°C° 0 mm 6 mps 740 mmHg 45%
    12:00 +11°C° 0 mm 6 mps 740 mmHg 44%
    13:00 +11°C° 0 mm 6 mps 740 mmHg 44%
    14:00 +13°C° 0 mm 6 mps 740 mmHg 43%
    15:00 +12°C° 0 mm 5 mps 740 mmHg 45%
    16:00 +12°C° 0 mm 5 mps 740 mmHg 47%
    17:00 +12°C° 0 mm 5 mps 740 mmHg 49%
    18:00 +11°C° 0 mm 4 mps 740 mmHg 53%
    19:00 +8°C° 0 mm 4 mps 741 mmHg 57%
    20:00 +7°C° 0 mm 4 mps 741 mmHg 61%
    21:00 +7°C° 0 mm 4 mps 741 mmHg 61%
    22:00 +7°C° 0 mm 4 mps 741 mmHg 62%
    23:00 +7°C° 0 mm 4 mps 741 mmHg 62%

    Day after tomorrow, 23 April, Tuesday

    Time Temperature Precipitation Wind Pressure Humidity
    00:00 +6°C° 0 mm 4 mps 741 mmHg 64%
    01:00 +6°C° 0 mm 4 mps 741 mmHg 66%
    02:00 +5°C° 0 mm 3 mps 741 mmHg 68%
    03:00 +5°C° 0 mm 3 mps 741 mmHg 70%
    04:00 +4°C° 0 mm 3 mps 742 mmHg 71%
    05:00 +4°C° 0 mm 3 mps 742 mmHg 73%
    06:00 +5°C° 0 mm 4 mps 742 mmHg 68%
    07:00 +7°C° 0 mm 5 mps 742 mmHg 63%
    08:00 +9°C° 0 mm 6 mps 743 mmHg 58%
    09:00 +10°C° 0 mm 6 mps 743 mmHg 53%
    10:00 +11°C° 0 mm 7 mps 743 mmHg 48%
    11:00 +14°C° 0 mm 7 mps 743 mmHg 44%
    12:00 +14°C° 0 mm 7 mps 742 mmHg 44%
    13:00 +15°C° 0 mm 7 mps 742 mmHg 43%
    14:00 +15°C° 0 mm 7 mps 742 mmHg 43%
    15:00 +15°C° 0 mm 6 mps 742 mmHg 46%
    16:00 +14°C° 0 mm 6 mps 741 mmHg 48%
    17:00 +14°C° 0 mm 5 mps 741 mmHg 51%
    18:00 +12°C° 0 mm 5 mps 741 mmHg 55%
    19:00 +11°C° 0 mm 4 mps 741 mmHg 59%
    20:00 +10°C° 0 mm 4 mps 741 mmHg 63%
    21:00 +8°C° 0 mm 4 mps 741 mmHg 64%
    22:00 +7°C° 0 mm 4 mps 741 mmHg 66%
    23:00 +7°C° 0 mm 4 mps 742 mmHg 67%

    24 April, Wednesday

    Time Temperature Precipitation Wind Pressure Humidity
    00:00 +6°C° 0 mm 4 mps 742 mmHg 67%
    01:00 +6°C° 0 mm 4 mps 742 mmHg 67%
    02:00 +5°C° 0 mm 4 mps 742 mmHg 67%
    03:00 +5°C° 0 mm 4 mps 742 mmHg 67%
    04:00 +5°C° 0 mm 4 mps 742 mmHg 67%
    05:00 +5°C° 0 mm 5 mps 742 mmHg 67%
    06:00 +6°C° 0 mm 5 mps 742 mmHg 62%
    07:00 +8°C° 0 mm 6 mps 742 mmHg 56%
    08:00 +9°C° 0 mm 7 mps 742 mmHg 50%
    09:00 +10°C° 0 mm 7 mps 742 mmHg 47%
    10:00 +12°C° 0 mm 8 mps 742 mmHg 44%
    11:00 +13°C° 0 mm 8 mps 742 mmHg 41%
    12:00 +15°C° 0 mm 8 mps 742 mmHg 41%
    13:00 +15°C° 0 mm 7 mps 742 mmHg 41%
    14:00 +16°C° 0 mm 7 mps 742 mmHg 41%
    15:00 +16°C° 0 mm 7 mps 741 mmHg 43%
    16:00 +15°C° 0 mm 7 mps 741 mmHg 45%
    17:00 +15°C° 0 mm 6 mps 741 mmHg 48%
    18:00 +14°C° 0 mm 6 mps 741 mmHg 52%
    19:00 +12°C° 0 mm 5 mps 741 mmHg 57%
    20:00 +11°C° 0 mm 4 mps 741 mmHg 61%
    21:00 +10°C° 0 mm 5 mps 741 mmHg 62%
    22:00 +9°C° 0 mm 5 mps 741 mmHg 63%
    23:00 +9°C° 0 mm 5 mps 741 mmHg 64%

    25 April, Thursday

    Time Temperature Precipitation Wind Pressure Humidity
    00:00 +8°C° 0 mm 5 mps 741 mmHg 67%
    01:00 +8°C° 0 mm 5 mps 741 mmHg 69%
    02:00 +7°C° 0 mm 5 mps 741 mmHg 72%
    03:00 +7°C° 0 mm 5 mps 741 mmHg 72%
    04:00 +6°C° 0 mm 5 mps 741 mmHg 73%
    05:00 +6°C° 0 mm 5 mps 741 mmHg 73%
    06:00 +7°C° 0 mm 5 mps 741 mmHg 69%
    07:00 +9°C° 0 mm 6 mps 741 mmHg 64%
    08:00 +10°C° 0 mm 7 mps 741 mmHg 60%
    09:00 +12°C° 0 mm 7 mps 741 mmHg 57%
    10:00 +14°C° 0 mm 7 mps 741 mmHg 53%
    11:00 +16°C° 0 mm 8 mps 741 mmHg 50%
    12:00 +16°C° 0 mm 8 mps 741 mmHg 49%
    13:00 +17°C° 0 mm 7 mps 740 mmHg 48%
    14:00 +18°C° 0 mm 7 mps 740 mmHg 48%
    15:00 +18°C° 0 mm 7 mps 740 mmHg 49%
    16:00 +18°C° 0 mm 7 mps 739 mmHg 51%
    17:00 +17°C° 0 mm 7 mps 739 mmHg 53%
    18:00 +16°C° 0 mm 6 mps 739 mmHg 56%
    19:00 +15°C° 0 mm 6 mps 739 mmHg 60%
    20:00 +13°C° 0 mm 5 mps 738 mmHg 64%
    21:00 +13°C° 0 mm 6 mps 738 mmHg 62%
    22:00 +13°C° 0 mm 6 mps 738 mmHg 61%
    23:00 +11°C° 0 mm 6 mps 738 mmHg 60%

    26 April, Friday

    Time Temperature Precipitation Wind Pressure Humidity
    00:00 +11°C° 0.2 mm 6 mps 738 mmHg 62%
    01:00 +10°C° 0.2 mm 6 mps 738 mmHg 64%
    02:00 +9°C° 0.2 mm 5 mps 737 mmHg 65%
    03:00 +9°C° 0.1 mm 5 mps 737 mmHg 66%
    04:00 +8°C° 0.1 mm 5 mps 737 mmHg 67%
    05:00 +7°C° 0.1 mm 5 mps 737 mmHg 68%
    06:00 +8°C° 0 mm 5 mps 737 mmHg 66%
    07:00 +10°C° 0 mm 6 mps 736 mmHg 63%
    08:00 +11°C° 0 mm 7 mps 736 mmHg 61%
    09:00 +14°C° 0 mm 7 mps 736 mmHg 57%
    10:00 +15°C° 0 mm 7 mps 736 mmHg 54%
    11:00 +17°C° 0 mm 7 mps 736 mmHg 51%
    12:00 +18°C° 0 mm 7 mps 735 mmHg 50%
    13:00 +20°C° 0 mm 7 mps 735 mmHg 48%
    14:00 +21°C° 0 mm 7 mps 735 mmHg 47%
    15:00 +21°C° 0 mm 7 mps 734 mmHg 48%
    16:00 +20°C° 0 mm 7 mps 734 mmHg 49%
    17:00 +20°C° 0 mm 6 mps 733 mmHg 50%
    18:00 +19°C° 0 mm 6 mps 733 mmHg 54%
    19:00 +16°C° 0 mm 5 mps 733 mmHg 58%
    20:00 +15°C° 0 mm 5 mps 733 mmHg 62%
    21:00 +14°C° 0 mm 5 mps 733 mmHg 62%
    22:00 +14°C° 0 mm 5 mps 733 mmHg 62%
    23:00 +14°C° 0 mm 5 mps 733 mmHg 63%
    Show more